Regional Weather Roundup
Issued by NWS Cleveland, OH

Home | Current Version | Previous Version | Text Only | Print | Product List | Glossary On
Versions: 1 2 3 4 5 6 7 8 9 10 11 12 13 14 15 16 17 18 19 20 21 22 23 24 25 26 27 28 29 30 31 32 33 34 35 36 37 38 39 40 41 42 43 44 45 46 47 48 49 50
000
ASUS41 KCLE 070710
RWRCLE
OHIO REGIONAL WEATHER ROUNDUP
NATIONAL WEATHER SERVICE WILMINGTON, OH
300 AM EDT TUE JUL 07 2015

NOTE: "FAIR" INDICATES FEW OR NO CLOUDS BELOW 12,000 FEET WITH NO
SIGNIFICANT WEATHER AND/OR OBSTRUCTIONS TO VISIBILITY.

OHZ001>008-015>018-024>027-034-035-043-044-070800-
   NORTHWEST OHIO

CITY           SKY/WX    TMP DP  RH WIND       PRES   REMARKS
DEFIANCE       CLOUDY    75  68  78 S7        29.90F
FINDLAY        PTCLDY    71  65  81 S9        29.93F
TOLEDO EXPRESS CLOUDY    72  66  81 S8        29.90F
TOLEDO EXEC    MOCLDY    73  64  73 S10       29.92F
LIMA           PTCLDY    72  67  84 S9        29.94F HAZE
$$

OHZ009>014-019>023-028>033-038-089-070800-
   NORTHEAST OHIO

CITY           SKY/WX    TMP DP  RH WIND       PRES   REMARKS
CLE-HOPKINS    MOCLDY    71  61  70 S12       29.98S
CLE-LAKEFRONT  CLEAR     75  61  61 S12       29.94F
CUY CO. ARPT   NOT AVBL
LORAIN-ELYRIA  PTCLDY    68  61  78 S6        29.97S
ASHTABULA      MOCLDY    69  68  96 S5        29.98F
AKRON-CANTON   CLEAR     69  64  84 SW6       30.01R
WOOSTER        CLEAR     65  62  90 S5        30.00S
MANSFIELD      CLEAR     68  62  81 S9        29.99F
YOUNGSTOWN     MOCLDY    69  67  93 S7        29.99F
$$

OHZ042-051>053-060>062-070>072-077>081-070800-
  SOUTHWEST OHIO

CITY           SKY/WX    TMP DP  RH WIND       PRES   REMARKS
CINC-COVINGTON PTCLDY    72  69  90 S8        30.00S
CINC-LUNKEN    CLEAR     71  68  90 S3        29.99F
HAMILTON       PTCLDY    74  70  87 CALM      29.99S
DAYTON         PTCLDY    74  69  85 S9        29.98F
WRIGHT-PAT AFB PTCLDY    71  67  89 S2        29.98F
DAYTON GENERAL CLEAR     70  68  93 S7        29.98F
WILMINGTON     PTCLDY    70  66  87 S7        30.00S FOG
$$

OHZ036-037-039>041-045>050-054>059-063>069-073>076-082>088-070800-
  CENTRAL AND SOUTHEAST OHIO

CITY           SKY/WX    TMP DP  RH WIND       PRES   REMARKS
COLUMBUS       CLOUDY    70  63  78 S3        29.99S
OSU AIRPORT    PTCLDY    71  65  81 S7        29.99S
BOLTON FIELD   CLEAR     67  65  93 S5        30.00S
RICKENBACK AFB PTCLDY    67  64  89 S5        30.00S
NEWARK         PTCLDY    64  61  90 CALM      30.00S
MARION         PTCLDY    69  63  81 S8        29.98F HAZE
LANCASTER      PTCLDY    68  63  84 S3        30.01S
ZANESVILLE     CLEAR     67  63  87 S3        30.01F FOG
NEW PHILLY     PTCLDY    65  65 100 SE5       30.01F FOG
$$



USA.gov is the U.S. government's official web portal to all federal, state and local government web resources and services.